SCP
0 0 0 0 0 0 0 0 0 0 0 0 -0 -0 0 0 0 0 0 0 0 0 0 0 0 0 0 0 0 0 0 0 0 -0 -0 -0 -0 -0 -0 -0 -0 -0 -0 0 0 0 0 0 0
0 0 0 0 0 0 0 0 0 0 0 0 0 0 0 0 0 0 0 0 0 0 0 0 0 0 0 0 0 0 0 0 0 -0 -0 -0 -0 -0 -0 -0 -0 -0 -0 0 0 0 0 0 0
0 0 0 0 0 0 0 0 0 0 0 0 0 0 0 0 0 0 0 0 0 0 0 0 0 0 0 0 0 0 0 0 0 0 -0 -0 -0 -0 -0 -0 -0 -0 -0 -0 0 0 0 0 0
0 0 0 0 0 0 0 0 0 0 0 0 0 0 0 0 0 0 0 0 0 0 0 0 0 0 0 0 0 0 0 0 0 0 0 -0 -0 -0 -0 -0 -0 -0 -0 -0 0 0 0 0 0
0 0 0 0 0 0 0 0 0 0 0 0 0 0 0 0 0 0 0 0 0 0 0 0 0 0 0 0 0 0 0 0 0 0 0 0 -0 -0 -0 -0 -0 -0 -0 -0 -0 0 0 0 0
0 0 0 0 0 0 0 0 0 0 0 0 0 0 0 0 0 0 0 0 0 0 0 0 0 0 0 0 0 0 0 0 0 0 0 0 0 0 0 -0 -0 -0 -0 -0 -0 -0 0 0 0
-0 0 0 0 0 0 0 0 0 0 0 0 0 0 0 0 0 0 0 0 0 0 0 0 0 0 0 0 0 0 0 0 0 0 0 0 0 0 0 0 0 0 0 0 0 -0 0 0 0
-0 0 0 0 0 0 0 0 0 0 0 0 0 0 0 0 0 0 0 0 0 0 0 0 0 0 0 0 0 0 0 0 0 0 0 0 0 0 0 0 0 0 0 0 0 0 0 0 0
0 0 0 0 0 0 0 0 0 0 0 0 0 0 0 0 0 0 0 0 0 0 0 0 0 0 0 0 0 0 0 0 0 0 0 0 0 0 0 0 0 0 0 0 0 0 0 0 0
0 0 0 0 0 0 0 0 0 0 0 0 0 0 0 0 0 0 0 0 0 0 0 0 0 0 0 0 0 0 0 0 0 0 0 0 0 0 0 0 0 0 0 0 0 0 0 0 0
0 0 0 0 0 0 0 0 0 0 0 0 0 0 0 0 0 0 0 0 0 0 0 0 0 0 0 0 0 0 0 0 0 0 0 0 0 0 0 0 0 0 0 0 0 0 0 0 0
0 0 0 0 0 0 0 0 0 0 0 0 0 0 0 0 0 0 0 0 0 0 0 0 0 0 0 0 0 0 0 0 0 0 0 0 0 0 0 0 0 0 0 0 0 0 0 0 0
0 0 0 0 0 0 0 0 0 0 0 0 0 0 0 0 0 0 0 0 0 0 0 0 0 0 0 0 0 0 0 0 0 0 0 0 0 0 0 0 0 0 0 0 0 0 0 0 0
0 0 0 0 0 0 0 0 0 0 0 0 0 0 0 0 0 0 0 0 0 0 0 0 0 0 0 0 0 0 0 0 0 0 0 0 0 0 0 0 0 0 0 0 0 0 0 0 0
0 0 0 0 0 0 0 0 0 0 0 0 0 0 0 0 0 0 0 0 0 0 0 0 0 0 0 0 0 0 0 0 0 0 0 0 0 0 0 0 0 0 1 1 1 1 0 0 0
0 0 0 0 0 0 0 0 0 0 0 0 0 0 0 0 0 0 0 0 0 0 0 0 0 0 0 0 0 0 0 0 0 0 0 0 0 0 0 0 0 0 1 1 1 1 1 0 0
0 0 0 0 0 0 0 0 0 0 0 0 0 0 0 0 0 0 0 0 0 0 0 0 0 0 0 0 0 0 0 0 0 0 0 0 0 0 0 0 0 0 1 1 1 1 1 1 1
0 0 0 0 0 0 0 0 0 0 0 0 0 0 0 0 0 0 0 0 0 0 0 0 0 0 0 0 0 0 0 0 0 0 0 0 0 0 0 0 0 0 1 1 1 1 1 1 1
0 0 0 0 0 0 0 0 0 0 0 0 0 0 0 0 0 0 0 0 0 0 0 0 0 0 0 0 0 0 0 0 0 0 0 0 0 0 0 0 0 0 0 1 1 1 1 1 1
0 0 0 0 0 0 0 0 0 0 0 0 0 0 0 0 0 0 0 0 0 0 0 0 0 0 0 0 0 0 0 0 0 0 0 0 0 0 0 0 0 0 0 0 1 1 1 1 1
0 0 0 0 0 0 0 0 0 0 0 0 0 0 0 0 0 0 0 0 0 0 0 0 0 0 0 0 0 0 0 0 0 0 0 0 0 0 0 0 0 0 0 0 1 1 1 1 1
0 0 0 0 0 0 0 0 0 0 0 0 0 0 0 0 0 0 0 0 0 0 0 0 0 0 0 0 0 0 0 0 0 0 0 0 0 0 0 0 0 0 0 0 0 1 1 1 1
0 0 0 0 0 0 0 0 0 0 0 0 0 0 0 0 0 0 0 0 0 0 0 0 0 0 0 0 0 0 0 0 0 0 0 0 0 0 0 0 0 0 0 0 0 0 1 1 1
0 0 0 0 0 0 0 0 0 0 0 0 0 0 0 0 0 0 0 0 0 0 0 0 0 0 0 0 0 0 0 0 0 0 0 0 0 0 0 0 0 0 0 0 0 0 0 1 1
0 0 0 0 0 0 0 0 0 0 0 0 0 0 0 0 0 0 0 0 0 0 0 0 0 0 0 0 0 0 0 0 0 0 0 0 0 0 0 0 0 0 0 0 0 0 0 0 0
0 0 0 0 0 0 0 0 0 0 0 0 0 0 0 0 0 0 0 0 0 0 0 0 0 0 0 0 0 0 0 0 0 0 0 0 0 0 0 0 0 0 0 0 0 0 0 0 0
0 0 0 0 0 0 0 0 0 0 0 0 0 0 0 0 0 0 0 0 0 0 0 0 0 0 0 0 0 0 0 0 0 0 0 0 0 0 0 0 0 0 0 0 0 0 0 0 0
0 0 0 0 0 0 0 0 0 0 0 0 0 0 0 0 0 0 0 0 0 0 0 0 0 0 0 0 0 0 0 0 0 0 0 0 0 0 0 0 0 0 0 0 0 0 0 0 0
0 0 0 0 0 0 0 0 0 0 0 0 0 0 0 0 0 0 0 0 0 0 0 0 0 0 0 0 0 0 0 0 0 0 0 0 0 0 0 0 0 0 0 0 0 0 0 0 0
0 0 0 0 0 0 0 0 0 0 0 0 0 0 0 0 0 0 0 0 0 0 0 0 0 0 0 0 0 0 0 0 0 0 0 0 0 0 0 0 0 0 0 0 0 0 0 0 0
Wind_Speed
11 9 6 4 5 2 8 7 7 7 5 8 7 4 6 9 7 6 5 4 2 5 7 9 6 5 6 6 6 6 6 6 6 6 5 5 5 5 4 4 4 4 3 3 2 2 2 1 1
9 7 5 4 3 4 7 6 9 9 7 4 5 5 7 9 9 6 6 4 2 4 4 4 5 4 4 5 6 6 7 7 7 6 6 6 6 6 5 5 5 4 4 3 3 2 2 2 1
8 5 4 2 2 5 5 5 6 7 8 5 5 7 7 8 8 7 7 3 2 3 2 4 2 1 2 4 5 6 6 7 7 7 7 7 7 7 6 6 6 5 5 4 4 3 3 2 2
5 4 4 1 7 6 4 4 4 4 6 7 5 8 8 8 7 7 7 5 4 4 3 6 6 5 4 4 5 6 6 7 7 8 8 8 8 8 7 7 7 6 6 5 5 4 4 3 3
4 3 2 3 6 5 4 5 6 6 5 7 7 8 7 8 9 9 8 8 6 6 6 7 10 9 8 7 7 7 7 7 8 8 8 9 9 9 8 8 8 7 7 6 5 5 5 4 3
3 3 1 3 5 5 4 3 3 6 6 6 5 6 7 7 9 9 8 8 8 8 8 8 10 11 11 10 10 9 9 8 8 8 9 9 10 10 10 9 9 8 8 7 6 6 5 5 4
4 1 0 3 5 5 4 2 4 4 6 7 5 5 6 9 8 7 7 7 8 7 7 7 7 8 9 11 10 10 9 9 8 8 9 9 10 10 11 11 10 9 9 8 8 7 6 6 5
3 2 2 2 4 4 4 3 4 5 6 6 5 5 5 6 5 6 6 7 7 7 7 7 6 6 6 7 9 10 10 8 8 8 8 9 10 11 11 12 11 11 10 10 9 8 7 6 6
4 3 0 1 2 5 5 4 4 4 7 8 8 8 6 5 4 5 6 7 7 7 6 5 5 5 5 5 5 7 7 6 7 6 8 8 7 8 8 10 8 11 11 11 10 9 8 8 8
4 1 3 3 2 5 6 4 5 4 7 8 9 8 6 5 5 7 8 8 8 7 7 6 6 6 5 5 4 4 4 4 4 4 5 4 5 6 8 5 8 10 11 11 11 10 10 11 8
0 2 5 4 4 6 7 6 3 4 4 5 6 6 5 5 6 7 7 8 8 7 8 7 7 7 6 4 4 3 3 3 3 3 4 4 4 4 5 4 5 8 10 9 9 10 9 9 6
4 5 5 6 5 5 6 6 5 3 6 6 6 5 4 5 6 7 8 8 8 8 9 9 9 8 8 7 5 5 4 3 3 4 4 3 3 4 4 4 5 5 4 6 6 6 7 9 8
5 6 5 6 6 6 6 6 6 7 7 6 6 5 4 5 5 6 7 7 8 9 9 10 10 9 8 7 6 6 5 5 5 4 4 4 4 4 4 4 4 5 4 5 6 6 7 7 8
6 9 8 7 7 5 7 7 6 7 7 6 5 4 3 4 5 6 7 9 9 9 10 10 10 9 9 8 7 6 6 5 6 5 5 6 5 5 4 4 4 4 4 5 5 6 6 5 5
9 9 7 5 5 5 6 6 4 8 7 6 4 3 2 3 4 6 8 9 10 10 10 10 10 10 10 9 8 6 6 6 6 5 6 6 6 6 5 5 5 5 4 5 4 5 5 5 6
6 6 5 6 5 5 7 4 7 8 8 6 4 3 1 2 4 6 7 8 9 10 10 10 8 10 10 9 8 6 6 6 5 5 5 7 6 6 6 6 5 5 4 4 4 4 5 5 6
7 6 5 6 7 5 7 4 7 8 8 6 5 2 1 2 4 6 7 8 9 9 10 10 10 10 10 9 7 7 6 5 5 5 4 6 7 7 6 5 5 6 5 5 5 5 5 5 6
4 6 5 3 5 7 8 5 6 8 8 7 5 4 2 3 5 6 7 7 7 8 9 9 9 9 9 7 6 5 5 5 4 4 4 6 6 7 7 5 6 6 5 5 5 6 6 5 5
3 5 4 2 2 5 8 7 5 8 8 8 7 5 3 3 4 5 6 6 7 8 9 9 9 9 8 7 7 6 6 6 5 5 6 6 6 6 6 6 6 5 5 6 6 6 7 6 5
2 4 2 3 1 5 6 8 5 8 9 8 7 6 4 3 3 4 6 7 8 8 9 10 9 9 8 7 7 6 6 5 5 5 5 6 6 6 6 6 5 5 5 7 7 7 5 5 6
0 3 1 1 3 4 6 7 6 7 9 8 8 7 5 3 5 5 6 6 7 8 8 8 8 8 8 8 6 6 5 4 4 6 5 7 7 6 6 6 6 6 6 6 7 7 8 6 6
2 2 2 3 5 2 3 4 4 4 7 9 9 8 6 4 3 4 5 6 7 8 7 8 8 8 8 7 7 8 6 6 6 6 6 7 6 6 6 6 6 6 5 6 7 7 7 7 6
4 3 2 3 5 5 5 6 2 3 4 5 7 7 6 4 3 4 4 6 6 6 6 6 7 7 7 7 6 6 6 6 5 6 7 7 6 6 6 6 6 5 5 6 7 7 8 7 8
6 5 4 4 6 6 1 5 2 2 1 1 2 5 6 5 3 3 3 4 5 5 5 5 6 6 6 6 6 7 8 8 8 8 8 7 5 5 7 7 6 5 5 6 6 7 8 8 9
6 6 4 6 5 2 2 5 4 2 1 3 2 3 5 4 4 4 4 5 5 5 5 5 5 5 6 6 6 7 7 8 8 8 7 7 6 6 8 8 7 6 6 6 6 7 8 8 9
2 5 5 4 2 1 4 5 1 2 1 3 4 4 4 5 5 4 4 5 5 5 5 5 5 5 5 6 6 6 7 5 5 7 7 7 6 6 8 8 7 7 7 6 6 6 7 7 8
3 2 4 5 3 4 3 2 2 3 4 4 5 5 6 6 5 5 4 5 5 5 5 5 5 5 5 5 6 6 6 6 7 7 7 6 6 7 8 8 8 7 7 7 7 5 6 6 7
4 2 3 5 4 3 2 3 1 1 1 2 5 6 7 6 6 5 5 5 5 5 5 5 5 5 5 5 5 5 6 6 6 7 7 8 8 7 8 9 8 7 7 7 6 6 6 6 7
5 4 4 3 4 5 2 3 3 2 3 4 3 4 6 6 6 6 5 5 5 5 5 5 5 5 5 5 5 5 5 6 6 6 7 7 8 8 8 8 9 8 8 7 6 7 7 7 7
3 3 5 5 3 3 4 0 4 2 4 5 6 4 5 6 6 6 6 6 6 5 5 5 5 5 5 5 5 5 5 5 6 6 7 7 8 8 8 8 8 8 8 7 7 7 7 7 7
Wind_Direction
176 177 185 209 228 127 70 55 46 46 48 43 42 37 44 40 17 43 46 62 87 145 150 154 169 181 186 192 196 200 203 202 201 202 203 203 204 205 208 215 223 224 221 223 223 210 191 164 150
167 166 203 231 252 94 75 55 54 43 32 27 46 40 57 57 36 35 35 33 84 130 152 148 140 186 201 209 214 216 216 215 214 216 217 217 217 216 219 224 231 235 233 235 231 225 213 201 187
165 202 239 240 52 60 74 47 45 57 44 36 62 49 43 31 13 14 7 21 91 101 90 75 59 223 243 246 242 239 236 232 229 227 225 226 228 226 228 231 234 238 239 240 238 237 231 222 214
185 215 231 120 85 68 63 39 22 56 59 38 66 76 74 36 4 9 8 31 69 66 48 52 23 3 342 313 289 270 262 253 245 239 236 234 235 234 233 234 236 239 241 241 241 245 244 235 223
224 243 179 105 96 99 80 47 47 55 61 42 60 87 75 33 26 31 31 33 41 44 33 35 27 10 358 343 326 307 287 272 261 254 249 245 242 239 237 237 238 240 241 241 241 247 249 239 227
231 245 200 128 118 124 105 61 56 56 67 51 50 85 74 42 32 33 40 43 42 39 31 28 28 16 2 348 335 323 306 289 275 267 262 257 251 246 241 238 238 238 238 240 240 243 246 243 234
272 255 99 129 138 142 116 67 46 51 64 43 17 85 94 49 38 40 50 55 52 44 34 22 13 6 359 350 336 326 319 308 298 285 275 266 259 254 248 242 237 235 235 238 239 239 240 241 237
278 244 143 151 160 129 120 107 64 34 62 48 23 63 68 44 50 63 64 59 53 43 32 18 7 360 349 336 328 325 320 315 309 299 290 280 267 257 250 245 234 233 233 234 234 234 235 235 234
250 250 54 120 160 124 142 133 91 72 85 75 67 71 77 76 74 68 62 56 48 39 25 13 358 355 337 313 313 310 305 304 299 283 289 288 272 262 247 242 236 235 236 235 231 229 230 230 218
239 288 68 60 74 129 139 125 120 129 105 98 95 91 93 85 62 49 41 34 26 17 7 360 346 341 327 317 312 301 299 302 293 278 273 275 273 271 271 271 247 244 240 238 233 230 227 230 216
147 73 107 106 102 129 135 125 127 153 104 94 106 102 91 75 59 45 35 25 14 2 360 353 340 334 326 316 306 306 298 293 281 272 259 256 259 259 262 265 247 239 232 232 219 218 225 224 221
113 89 108 120 122 139 137 132 120 70 90 101 99 101 95 67 47 32 21 14 5 2 356 349 341 333 330 326 318 300 298 297 287 274 261 248 245 249 252 250 255 251 240 235 233 234 227 233 222
128 122 110 118 123 123 125 125 116 112 114 117 119 116 87 59 41 30 16 7 1 359 353 352 341 337 333 327 311 304 305 302 293 283 275 261 255 251 249 248 243 248 248 241 236 236 233 236 241
123 128 128 130 129 136 139 130 137 133 144 142 140 124 93 57 29 14 9 3 360 356 352 351 343 341 334 325 317 313 308 298 291 285 280 277 265 258 255 254 248 244 241 240 240 241 235 234 238
135 134 138 152 154 150 168 168 160 148 166 164 162 131 90 46 21 9 7 358 356 352 349 353 340 342 337 333 328 316 307 304 299 293 285 275 270 269 263 258 246 237 230 234 236 235 231 228 229
164 181 191 169 179 172 230 241 145 166 185 186 192 165 138 32 3 9 4 358 356 353 349 351 347 344 342 337 327 320 314 312 301 297 290 285 280 276 273 265 257 247 234 228 226 223 221 221 225
198 237 251 166 192 194 232 267 152 181 200 207 213 222 267 347 3 8 2 359 356 352 346 350 354 347 346 340 328 323 318 316 308 304 303 302 296 286 274 269 267 256 243 231 229 219 220 223 222
241 268 273 222 176 220 237 247 171 191 214 227 226 242 269 331 3 7 1 356 351 350 345 350 353 352 348 343 335 336 331 329 329 323 324 316 302 294 286 271 261 257 250 241 230 226 220 226 222
293 277 285 85 143 238 252 261 216 199 216 227 230 241 274 328 357 5 357 351 350 354 349 352 353 358 353 349 344 344 343 336 341 339 340 323 313 304 289 281 277 265 254 249 242 231 225 223 217
222 269 255 144 150 259 269 266 241 213 225 236 245 248 261 299 328 349 350 356 354 352 346 352 359 357 356 353 342 336 334 329 340 336 337 337 331 319 304 291 279 264 260 251 245 234 236 228 210
157 301 291 198 173 217 277 254 208 210 224 230 241 253 261 285 318 341 348 353 347 350 351 350 355 351 356 352 347 340 344 336 347 348 345 342 336 326 315 305 290 277 264 256 248 240 232 233 225
140 84 175 201 240 212 274 292 162 193 221 229 232 235 244 255 292 321 334 342 343 350 346 346 353 354 358 350 356 352 350 351 347 340 339 337 342 339 332 316 300 286 273 265 256 242 240 237 233
89 115 187 241 263 263 215 267 156 166 241 236 228 227 233 242 271 303 321 330 335 339 340 341 348 352 357 354 354 344 353 347 344 343 344 342 347 345 344 333 320 304 287 275 267 259 243 237 236
137 165 167 213 243 247 192 267 267 159 315 340 205 216 220 229 252 280 303 312 326 333 334 337 343 351 353 348 351 356 352 346 347 348 347 343 346 345 351 340 329 315 304 294 281 266 254 245 240
208 237 226 209 212 204 117 258 275 54 311 277 262 218 210 222 249 270 295 311 326 331 329 328 337 344 348 347 349 353 351 344 346 346 346 341 341 344 346 339 329 322 311 298 289 275 264 253 246
213 266 288 297 297 153 190 248 41 88 268 247 237 231 215 223 244 263 285 297 306 314 313 312 325 333 337 340 345 346 346 340 345 343 338 338 337 338 337 334 329 324 316 304 292 283 272 260 251
194 217 337 292 284 266 206 235 239 167 220 222 227 227 228 229 236 253 273 292 301 305 302 294 300 312 325 331 334 337 344 346 343 338 339 340 340 336 338 334 331 328 319 309 303 285 280 273 259
348 129 212 253 276 267 222 236 226 179 289 231 232 233 233 231 238 247 264 281 291 297 293 284 280 292 306 315 325 330 335 340 335 332 343 342 341 339 337 336 334 332 326 319 314 302 295 281 268
168 190 230 252 278 288 299 101 79 320 320 306 284 246 232 228 235 246 265 283 289 287 282 277 274 280 293 303 315 320 333 333 330 335 340 335 336 338 343 339 335 335 332 328 321 311 306 292 278
249 237 229 261 224 270 292 32 120 256 287 284 278 255 230 226 231 243 262 276 279 285 289 286 282 280 286 294 301 312 326 325 329 338 337 334 338 339 340 341 337 338 335 333 326 316 312 304 296